Weather Roundup
Issued by NWS Springfield, MO

Home | Current Version | Previous Version | Text Only | Print | Product List | Glossary On
Versions: 1 2 3 4 5 6 7 8 9 10 11 12 13 14 15 16 17 18 19 20 21 22 23 24 25 26 27 28 29 30 31 32 33 34 35 36 37 38 39 40 41 42 43 44 45 46 47 48 49 50
000
NZUS99 KSGF 211707
HRRSGF

HOURLY WEATHER
NATIONAL WEATHER SERVICE SPRINGFIELD MO
1100 AM CST SAT JAN 21 2017

......SGF CWA......

CITY           SKY/WX    TMP DP  RH WIND       PRES   REMARKS
SPRINGFIELD    MOSUNNY   60  37  42 SW12      29.59S
JOPLIN         CLOUDY    57  36  45 SW8       29.58F
WEST PLAINS    SUNNY     65  42  43 SW10      29.61F
ROLLA          LGT RAIN  60  40  47 SW17      29.56S
OSAGE BEACH    SUNNY     59  37  44 SW13G20   29.58F
BRANSON        SUNNY     63  41  45 SE6       29.60S

......SURROUNDING SGF CWA......

CITY           SKY/WX    TMP DP  RH WIND       PRES   REMARKS
CHANUTE        MOSUNNY   50  39  66 SW6       29.58F
PARSONS        MOSUNNY   48  39  71 SW3       29.59S
COFFEYVILLE    MOSUNNY   48  39  71 CALM      29.58F
EMPORIA        SUNNY     45  39  79 S5        29.55S
GROVE OK       MOSUNNY   54  41  62 CALM      29.59F
ROGERS AR      MOSUNNY   60  41  49 SW10      29.60R
SILOAM SPRINGS CLOUDY    57  41  54 S7        29.58F
HARRISON AR    SUNNY     62  43  49 S13       29.60S
NEAR YELLVILLE SUNNY     64  45  48 S7        29.58F

......KANSAS AND MISSOURI......

CITY           SKY/WX    TMP DP  RH WIND       PRES   REMARKS
KANSAS CTY INT CLOUDY    42  39  89 SW13      29.55R FOG
DOWNTOWN KC    CLOUDY    45  42  89 SW13      29.56R
COLUMBIA       SUNNY     55  42  61 SW14      29.55F
SEDALIA        SUNNY     52  42  69 SW10      29.57S
ST JOSEPH      CLOUDY    43  42  97 SW14      29.54R
ST LOUIS       NOT AVBL
SPIRIT OF STL  MOSUNNY   63  44  50 SW12G20   29.55S
KIRKSVILLE     FOG       44  43  96 S12       29.52R VSB 1
WICHITA        MOSUNNY   43  39  86 S6        29.54S
TOPEKA         SUNNY     45  40  82 SW6       29.54F
OLATHE         CLOUDY    40  40 100 SW7       29.55F FOG

......TENNESSEE......

CITY           SKY/WX    TMP DP  RH WIND       PRES   REMARKS
MEMPHIS        MOSUNNY   69  52  54 S14       29.68F
NASHVILLE      CLOUDY    67  45  45 S8        29.72R

......ARKANSAS.......

CITY           SKY/WX    TMP DP  RH WIND       PRES   REMARKS
FAYETTEVILLE   MOSUNNY   60  45  57 S10       29.59S
FT SMITH       MOSUNNY   60  46  59 NE7       29.58F
LITTLE ROCK    MOSUNNY   65  58  78 S6        29.65S

......OKLAHOMA.......

CITY           SKY/WX    TMP DP  RH WIND       PRES   REMARKS
TULSA          CLOUDY    54  37  52 CALM      29.56F
PONCA CITY     PTSUNNY   46  37  71 SE3       29.54F
MCALESTER      MOSUNNY   63  49  60 S8        29.56F
OKLAHOMA CITY  CLOUDY    50  37  61 SE5       29.51F

......IOWA............

CITY           SKY/WX    TMP DP  RH WIND       PRES   REMARKS
DES MOINES     CLOUDY    45  43  93 SW9       29.44S FOG
QUAD CITIES    MOSUNNY   51  43  74 SW9G20    29.45R

......ILLINOIS........

CITY           SKY/WX    TMP DP  RH WIND       PRES   REMARKS
QUINCY         SUNNY     53  44  71 SW14      29.52R
CHICAGO        MOSUNNY   56  47  71 S12       29.50F




USA.gov is the U.S. government's official web portal to all federal, state and local government web resources and services.